Find Starlink 4659

NORAD ID: 54841 Int'l Des: 2022-177 Owner: SPXS Country: US Constellation: starlink operational
LEOCIRCULAR

現在のビュー

3D地球を読み込み中...

About Starlink 4659

Starlink 4659 (NORAD 54841) is a starlink constellation satellite (v1.5) launched Dec 28, 2022 by SPXS of US. It operates in LEO, CIRCULAR orbit with a mass of 305.00 kg.

Starlink 4659について

説明を読み込み中...

次回通過

Passes for default location (London). Set your location on the main map for personalized predictions.

高度履歴

Loading altitude history...

軌道要素

1 54841U 22177X 26167.64077225 .00000233 00000-0 18001-4 0 9998
2 54841 43.0062 294.0862 0001394 272.0733 87.9959 15.27577442192093
Epoch: Jun 16, 2026 • Age: 43 hours

現在のステータス

高度 483.2 km
速度 7.63 km/s
衛星直下点 -1.54°S, 40.74°E
打ち上げ日 Dec 28, 2022
運用期間 3.4 years
タイプ internet

技術仕様

分類 Payload
質量 305.00 kg
乾燥質量 290.00 kg
総質量 305.00 kg
長さ 0.20 m
直径 2.80 m
スパン 9.00 m
形状 Box + pan
製造者 SPXS
バスタイプ Starlink
フェーズステータス In Orbit
所有者/国 SPXS/US

Most Searched